Regional Weather Roundup
Issued by NWS Little Rock, AR

Home | Current Version | Previous Version | Graphics & Text | Print | Product List | Glossary On
Versions: 1 2 3 4 5 6 7 8 9 10 11 12 13 14 15 16 17 18 19 20 21 22 23 24 25 26 27 28 29 30 31 32 33 34 35 36 37 38 39 40 41 42 43 44 45 46 47 48 49 50
000
ASUS44 KLZK 172105
RWRLZK

WEATHER ROUNDUP FOR ARKANSAS
NATIONAL WEATHER SERVICE LITTLE ROCK AR
300 PM CST TUE JAN 17 2017

NOTE: "FAIR" INDICATES FEW OR NO CLOUDS BELOW 12,000 FEET WITH NO
SIGNIFICANT WEATHER AND/OR OBSTRUCTIONS TO VISIBILITY.

ARZ001-003-010-029-172200-
NORTHWEST ARKANSAS

CITY           SKY/WX    TMP DP  RH WIND       PRES   REMARKS
FAYETTEVILLE   CLOUDY    41  37  86 W6        30.14R
FORT SMITH     CLOUDY    46  36  68 SW8       30.15F
HARRISON       CLOUDY    43  37  79 W12       30.12R
BENTONVILLE    CLOUDY   N/A N/A N/A NW7       30.14R
ROGERS         CLOUDY    40  35  83 W6        30.14R
SILOAM SPGS    CLOUDY    43  34  70 W6        30.14R
HIGHFILL       CLOUDY    41  36  82 N3        30.13R
SPRINGDALE     CLOUDY    41  36  81 W7        30.15R
$$

ARZ004-005-016-172200-
NORTH CENTRAL ARKANSAS

CITY           SKY/WX    TMP DP  RH WIND       PRES   REMARKS
BATESVILLE     PTSUNNY   50  39  66 NW6       30.12S
FLIPPIN        CLOUDY    46  36  66 NW7       30.10R
MTN HOME       CLOUDY    43  37  79 VRB5      30.11R
$$

ARZ040-041-172200-
WEST CENTRAL ARKANSAS

CITY           SKY/WX    TMP DP  RH WIND       PRES   REMARKS
MENA           PTSUNNY   54  43  66 CALM      30.13S
MOUNT IDA      CLOUDY    55  39  54 N5        30.10F
$$

ARZ009-017-025-026-028-172200-
NORTHEAST ARKANSAS

CITY           SKY/WX    TMP DP  RH WIND       PRES   REMARKS
CORNING        CLOUDY    46  41  81 W13       30.13R
JONESBORO      CLOUDY    50  41  71 NW10      30.12R
NEWPORT        CLOUDY    54  42  64 N8        30.12R
WALNUT RIDGE   CLOUDY    46  37  71 W12       30.13R
BLYTHEVILLE    PTSUNNY   52  44  74 W9        30.11R
NW BLYTHEVILLE CLOUDY    52  43  71 W9G18     30.11R
$$

ARZ022-023-033-042-044-172200-
CENTRAL ARKANSAS

CITY           SKY/WX    TMP DP  RH WIND       PRES   REMARKS
N LITTLE ROCK    N/A     52  43  70 W5        30.15R
JACKSONVILLE   CLOUDY    53  43  68 W7        30.13R
SEARCY         CLOUDY    54  42  64 SW8       30.15R
HOT SPRINGS    CLOUDY    54  41  61 NW3       30.13S
RUSSELLVILLE   PTSUNNY   49  38  65 NW9       30.14R
CLINTON        FAIR      50  41  71 SW8       30.13R
$$

ARZ036-172200-
EAST ARKANSAS

CITY           SKY/WX    TMP DP  RH WIND       PRES   REMARKS
WEST MEMPHIS   CLOUDY    53  47  79 W8        30.11R
$$

ARZ050-053-066-070-073-172200-
SOUTHWEST ARKANSAS

CITY           SKY/WX    TMP DP  RH WIND       PRES   REMARKS
ARKADELPHIA    MOCLDY    56  47  71 CALM      30.15R
CAMDEN         CLOUDY    57  46  67 SW5       30.16R
TEXARKANA      CLOUDY    52  44  74 SE5       30.15S
EL DORADO      CLOUDY    53  51  93 W3        30.16R
DE QUEEN       PTSUNNY   54  42  64 VRB3      30.12F
$$

ARZ056-057-069-172200-
SOUTHEAST ARKANSAS

CITY           SKY/WX    TMP DP  RH WIND       PRES   REMARKS
PINE BLUFF     CLOUDY    56  49  77 W6        30.14R
STUTTGART      CLOUDY    54  41  62 W8        30.14S
MONTICELLO     CLOUDY    54  49  83 W3        30.14R

$$





USA.gov is the U.S. government's official web portal to all federal, state and local government web resources and services.